Zurück zum Katalog

STARLINK-30593

AktivKommunikationVLEO
NORAD 58112·PAYLOAD·🇺🇸 United States

Gestartet Oct 21, 2023 von Vandenberg Space Force Base

Loading…

Nächste Überflüge (nächste 24 Stunden)

TLE

AktuellSource: CelesTrak SupGP

Epoche: Sep 14, 2026, 21:11 UTC

1 58112C 23161R   26257.88312500  .00007686  00000+0  22723-3 0  2571
2 58112  53.1598   6.3017 0001229  82.4107 299.7759 15.34366911    11

Verfolge STARLINK-30593 in Echtzeit mit AllMySat

Download on the App Store